Location: Bosdarros
(43.2167°N, 0.3667°W)
Time: 14:58:31
(UTC+00:00)

Cosmos 2279 Rocket - Pass Details

Date: 22 April 2021
Orbit: 964 x 978 km, 82.9° (Epoch: 12 May)

Event Time Altitude Azimuth Distance (km) Brightness Sun altitude
Rises 19:23:36 0° 162° (SSE) 3,637 6.6 -6.1°
Reaches altitude 10° 19:26:15 10° 155° (SSE) 2,695 5.9 -6.5°
Maximum altitude 19:31:53 39° 88° (E) 1,415 4.5 -7.5°
Drops below altitude 10° 19:37:33 10° 23° (NNE) 2,713 6.4 -8.4°
Sets 19:40:12 0° 16° (NNE) 3,665 7.2 -8.8°
